Theta_e
329 325 327 322 310 313 309 312 318 319 320 326 326 325 325 326 330 324 343 353 357 357 361 362 366 367 367 365 365 363 362 361 362 362 362 363 363 363 364 363 362 361 359 357 356 355 354 353 353
322 323 322 316 307 305 308 315 315 321 322 323 324 327 332 320 333 342 339 355 356 359 360 360 366 366 366 365 364 362 361 361 362 362 362 363 363 363 363 363 361 358 356 355 355 355 355 354 353
323 322 314 311 308 305 307 316 318 323 323 322 323 333 338 327 338 342 346 355 356 357 360 363 365 365 366 365 363 362 362 362 362 362 363 362 362 363 362 362 360 356 353 353 354 355 354 355 353
320 318 315 307 306 312 313 317 320 320 324 323 325 330 334 343 344 344 349 353 353 353 358 362 364 364 365 365 364 363 363 362 362 363 363 362 362 362 361 361 359 356 353 354 355 355 354 353 353
320 314 307 306 308 313 318 320 321 320 322 321 324 330 332 343 346 346 350 351 350 352 359 359 363 364 365 365 364 363 362 362 362 362 362 362 361 361 361 360 358 356 354 354 355 355 354 353 352
312 312 304 303 308 315 318 321 323 323 323 322 320 333 338 345 343 345 348 349 349 356 355 357 362 363 363 363 363 362 361 362 362 362 361 361 360 360 359 359 358 356 355 355 355 355 355 354 353
309 307 304 306 309 313 317 322 321 322 321 321 323 325 340 342 345 346 347 350 353 356 352 356 356 361 363 362 362 362 361 361 361 360 360 360 360 359 359 358 357 356 355 356 356 356 356 355 354
312 309 305 307 308 309 319 321 324 323 321 327 326 321 333 339 346 346 346 348 352 352 350 351 353 353 356 359 362 361 361 361 360 360 360 359 359 359 358 357 356 356 355 355 355 356 356 355 354
315 305 303 305 309 312 318 318 324 327 323 323 324 340 344 346 347 344 343 346 348 349 350 348 347 350 349 350 357 359 359 359 359 359 359 356 351 353 353 353 355 356 355 354 355 355 355 354 354
308 304 304 311 313 311 316 316 320 320 318 318 322 345 347 345 344 341 341 342 344 347 347 348 347 348 347 345 353 351 350 352 352 351 355 351 349 350 348 352 357 357 355 355 354 353 353 351 339
308 304 309 311 315 316 317 316 321 313 315 318 319 327 345 343 344 342 341 342 343 347 346 347 350 351 348 347 349 348 347 347 349 350 353 350 346 352 349 354 351 352 353 347 349 347 345 338 336
303 309 310 312 315 316 314 318 313 313 316 320 322 325 333 343 340 340 340 342 343 345 346 348 352 352 354 353 351 349 348 348 347 349 355 350 350 355 351 348 350 349 346 344 346 343 343 340 340
304 307 311 312 314 313 317 312 312 312 317 320 319 321 324 337 338 341 342 343 344 345 347 348 353 354 358 361 354 350 351 350 351 350 354 353 350 356 354 354 349 348 349 347 348 346 350 348 346
306 307 309 313 313 314 311 314 313 313 318 319 318 317 319 330 333 336 343 341 342 347 348 351 353 359 359 364 363 358 356 354 355 355 354 357 359 362 360 360 359 358 358 352 349 351 353 353 354
306 303 307 311 312 311 314 307 308 314 316 316 319 318 320 320 332 335 341 344 342 344 350 355 356 360 361 363 367 361 364 359 356 360 361 359 362 365 363 361 358 358 358 359 358 356 355 353 351
301 303 302 310 312 313 311 302 312 317 315 314 319 319 320 320 323 336 344 338 333 331 347 353 354 360 363 362 365 364 361 361 363 358 362 361 362 361 365 360 359 357 357 356 356 356 354 352 351
299 298 302 304 312 310 309 304 313 317 317 314 317 319 319 318 321 331 338 332 333 334 329 353 357 360 362 367 364 364 367 367 360 363 359 361 362 362 361 360 357 359 357 346 354 356 356 351 351
293 297 301 300 306 308 306 307 312 316 316 315 316 317 318 320 321 325 333 329 327 328 335 354 358 364 364 364 366 363 362 362 366 364 358 359 361 360 361 357 359 354 357 354 355 355 354 354 349
298 300 300 303 306 306 306 308 310 313 316 314 314 314 315 318 322 323 326 328 327 333 338 345 358 366 362 362 359 357 357 358 358 363 363 360 359 358 361 356 358 358 355 356 356 354 353 349 350
298 299 301 304 307 308 307 307 309 310 314 315 313 313 314 315 320 324 323 328 327 341 346 346 353 369 362 359 359 357 353 354 356 356 360 359 359 359 360 359 358 358 350 355 355 350 347 344 344
297 297 300 300 305 306 305 305 303 307 309 314 314 315 317 314 314 321 327 330 337 338 343 347 351 358 365 360 361 363 363 361 357 354 357 358 359 356 360 356 351 354 355 346 353 349 345 339 339
295 302 301 300 297 294 304 290 300 303 304 308 312 313 313 314 316 316 319 324 338 337 338 344 351 357 359 361 357 357 349 348 348 355 356 358 360 357 356 356 356 351 347 342 348 344 342 340 332
298 302 301 300 298 298 297 293 298 304 301 303 308 310 312 314 314 314 316 329 334 334 339 344 350 350 358 358 362 356 356 354 356 353 358 358 359 358 354 352 347 347 345 344 340 339 338 337 335
303 300 300 300 298 291 297 295 296 300 302 305 309 310 312 314 316 322 326 327 330 328 331 338 345 354 354 360 358 360 361 353 353 353 353 351 351 349 346 343 346 347 343 340 339 338 339 338 337
300 298 291 288 289 289 299 296 298 306 307 307 307 309 311 317 318 319 322 325 332 335 337 336 347 353 358 359 359 358 359 359 354 353 348 344 342 340 340 345 344 344 343 342 339 339 336 338 335
298 298 292 285 287 290 298 293 299 308 310 311 310 312 316 316 316 319 324 328 328 332 335 337 344 347 351 352 352 353 356 354 355 353 346 343 341 337 342 343 345 343 342 339 339 336 336 335 334
298 295 302 296 296 292 295 299 305 308 308 310 311 314 314 316 320 321 325 330 332 336 336 337 338 340 342 347 347 346 352 354 350 346 351 344 344 341 341 341 341 342 339 340 339 335 335 334 335
302 303 295 296 287 287 293 296 297 304 306 310 311 313 315 318 317 321 325 328 330 333 335 338 338 336 338 340 341 339 339 340 341 340 339 340 342 341 342 342 341 339 339 338 338 334 334 333 332
299 298 299 299 297 291 290 291 305 306 309 309 312 313 314 315 316 318 320 325 328 328 327 332 332 332 332 333 335 336 334 335 336 336 337 338 338 338 336 336 336 337 338 337 337 335 332 330 332
303 300 301 295 294 297 293 294 309 311 310 312 312 313 314 316 316 317 319 321 321 323 323 324 327 325 326 328 330 331 331 330 333 332 332 332 331 332 331 332 331 331 331 333 334 331 330 330 329
Wind_Speed
14 16 11 11 7 9 16 22 24 8 3 2 4 7 15 12 20 6 9 22 25 21 17 17 17 16 15 15 16 16 15 14 14 14 12 12 12 12 12 12 11 11 10 9 8 8 8 8 8
12 18 9 9 11 13 15 22 24 7 9 7 4 7 17 8 7 5 8 23 22 20 16 16 17 17 17 16 16 16 15 15 14 13 13 12 12 11 11 11 10 9 9 8 8 8 7 7 7
14 15 10 10 14 17 18 21 21 11 10 4 3 6 14 8 14 5 16 24 21 18 17 16 18 17 16 15 16 16 15 15 15 14 13 12 11 11 9 9 9 8 7 7 7 7 6 6 6
9 10 9 13 20 21 25 25 25 19 8 5 8 7 13 42 16 11 19 22 19 20 19 17 19 18 18 17 16 16 16 15 15 14 13 12 11 10 9 9 8 8 7 7 7 6 5 5 4
13 9 13 16 23 25 23 24 20 4 19 10 10 15 17 10 20 21 21 19 19 19 18 17 17 18 18 17 17 16 16 15 14 14 13 12 11 11 10 9 8 7 7 7 7 6 5 4 4
12 12 16 18 24 24 24 24 5 13 17 7 8 15 16 21 17 18 20 19 19 19 17 17 17 17 17 16 16 16 15 15 14 14 13 12 11 11 10 8 7 6 6 7 7 6 5 5 4
18 15 20 23 22 25 24 23 5 13 16 15 6 9 7 19 17 17 17 17 20 19 17 14 15 14 15 15 14 14 14 14 14 13 12 12 12 11 9 8 7 7 6 6 6 6 5 5 6
15 16 26 22 20 26 24 22 17 21 18 18 4 12 12 12 21 20 21 19 20 18 18 15 14 14 12 12 15 14 13 12 12 12 12 11 10 10 9 9 8 8 7 6 6 6 6 6 7
21 18 18 27 25 21 22 19 10 15 15 8 3 17 17 15 20 18 19 21 18 18 17 16 17 14 13 13 12 13 14 13 12 11 11 10 7 9 10 10 11 10 9 8 8 7 8 8 8
21 18 26 22 23 13 4 10 19 14 9 9 11 21 21 19 10 17 17 18 20 21 20 17 16 15 14 12 12 10 10 8 8 9 10 7 8 9 10 11 14 12 10 9 9 9 9 7 6
25 23 22 25 19 10 5 9 23 27 16 14 13 10 18 21 20 21 21 20 19 21 15 19 16 15 15 13 10 6 6 6 7 10 10 8 7 7 7 5 6 5 9 6 9 7 6 8 7
27 27 27 23 17 18 10 15 20 19 22 14 12 4 4 20 18 19 19 20 20 20 19 20 19 15 11 12 10 9 9 8 7 8 10 7 5 4 5 5 8 8 6 8 6 7 9 10 8
30 28 23 28 17 12 23 14 15 21 26 20 17 12 9 7 15 15 13 16 19 19 18 20 19 14 9 11 11 11 9 10 10 10 10 8 6 5 5 4 5 8 8 9 8 7 6 8 7
26 27 29 19 16 14 22 20 15 21 17 28 18 20 13 12 11 42 13 13 16 17 18 19 17 13 10 5 7 8 7 10 9 10 11 12 7 5 4 5 4 4 4 7 8 6 4 5 4
27 30 27 13 21 19 24 22 24 21 17 23 29 19 23 16 19 18 10 13 21 11 17 18 15 14 10 8 4 6 4 5 7 6 11 13 8 5 5 4 5 5 5 5 2 3 2 2 3
30 30 17 22 23 19 20 21 19 19 20 20 22 22 20 23 16 10 2 9 12 18 18 13 13 15 13 9 5 3 5 5 3 6 6 13 11 8 4 4 4 5 4 4 6 5 5 5 5
26 16 17 20 19 20 25 24 20 20 20 14 20 23 23 21 21 9 13 15 15 11 35 10 11 18 15 10 7 6 6 4 6 4 4 8 10 9 5 4 5 4 3 5 8 2 1 2 3
21 24 20 22 12 26 23 24 20 18 23 20 18 20 25 26 17 17 13 19 20 24 34 6 8 10 15 10 7 8 7 5 3 4 5 7 6 7 7 6 5 3 4 6 3 2 0 2 3
25 13 21 22 21 29 26 24 20 22 14 22 17 16 20 22 17 16 11 24 30 27 8 3 5 7 11 9 9 7 8 7 7 5 8 8 8 8 6 5 6 5 5 4 3 3 2 2 3
30 25 27 28 30 24 25 28 21 19 19 21 21 16 16 20 13 21 17 9 7 10 9 7 3 2 6 6 6 7 8 7 9 10 11 9 10 9 7 6 6 8 5 5 2 3 2 3 3
28 24 29 26 25 33 26 30 20 23 18 21 18 17 14 21 17 13 4 5 2 8 8 8 7 6 5 6 5 2 1 2 3 4 8 9 8 11 7 9 7 7 2 4 4 4 4 3 3
24 23 31 16 14 17 27 13 15 21 22 21 20 18 14 16 11 19 12 10 2 1 7 8 8 6 7 7 6 6 4 4 5 4 8 7 7 9 8 8 9 3 3 1 3 4 2 2 3
25 24 26 22 22 18 19 13 19 22 22 19 20 19 21 23 23 19 10 4 1 5 4 7 9 9 7 8 5 6 6 4 3 4 8 7 5 6 9 6 5 4 2 3 3 3 2 2 2
23 24 23 17 12 14 17 18 15 21 23 22 22 19 19 19 21 6 5 7 3 3 3 6 7 7 7 8 7 5 5 7 4 4 7 6 5 4 6 6 4 5 4 3 4 4 4 3 2
28 20 10 10 9 12 16 15 16 24 25 24 20 19 17 9 8 6 5 4 4 3 2 4 4 5 6 5 6 4 5 5 4 3 7 8 4 4 5 5 5 4 4 4 5 5 4 4 4
24 20 13 17 14 14 16 19 18 11 23 27 22 18 13 10 10 7 8 6 8 7 5 3 5 3 3 1 3 3 6 2 3 2 3 4 4 7 9 7 6 6 6 5 4 3 4 5 5
22 26 25 18 6 16 16 12 19 20 16 18 22 17 13 12 7 8 11 8 7 5 4 8 8 7 5 6 6 6 4 2 2 3 0 3 1 1 11 10 8 7 6 6 7 5 5 6 6
24 20 19 3 8 6 14 18 15 20 19 19 18 14 11 10 9 9 13 9 7 5 7 7 8 8 7 5 5 4 2 2 7 6 6 6 5 6 2 5 6 6 6 7 7 6 6 7 6
15 18 15 14 16 6 4 6 10 19 16 18 19 17 12 9 8 9 9 7 10 10 9 5 7 7 6 6 6 8 8 7 7 5 6 6 6 6 6 5 5 5 7 8 7 8 9 9 8
20 18 20 11 15 10 9 3 3 13 15 16 18 16 13 10 8 9 10 9 9 10 8 7 8 8 7 5 5 6 6 6 5 5 6 6 6 6 7 7 7 8 8 7 9 13 11 12 12
Wind_Direction
286 267 248 260 252 232 252 257 256 298 218 58 37 52 102 40 111 291 132 112 117 131 132 128 125 127 130 136 135 131 131 131 129 128 130 126 127 121 114 108 104 103 102 99 98 99 99 94 89
294 291 277 270 246 256 249 246 257 172 75 47 310 153 79 355 168 192 157 112 125 130 142 138 132 132 135 138 135 134 135 134 133 135 135 133 128 123 117 109 107 109 112 115 115 111 107 104 98
271 263 276 243 240 245 259 250 242 207 125 174 263 90 92 7 306 132 119 113 127 138 137 134 131 131 131 133 135 135 137 139 139 141 138 134 130 125 124 117 115 117 120 125 121 116 114 110 106
254 232 244 260 250 237 249 268 308 315 153 184 213 61 111 161 203 134 126 124 141 146 134 136 133 134 135 137 139 139 140 141 143 144 140 138 135 132 130 130 131 133 139 140 139 136 131 123 115
245 256 240 241 242 254 255 250 276 264 314 192 225 115 133 126 120 145 132 141 144 140 133 140 135 136 138 140 143 142 142 145 148 145 143 143 143 140 143 144 146 149 151 155 157 152 146 146 150
244 230 246 236 247 244 251 262 198 235 243 225 223 129 105 116 137 143 138 149 147 124 143 143 138 139 140 143 144 143 145 149 150 149 148 148 151 148 153 153 159 162 166 172 176 175 176 182 195
238 238 236 248 252 246 242 248 149 268 244 255 179 144 97 134 140 147 146 143 128 131 141 147 146 139 139 142 144 144 148 154 152 152 151 155 156 157 158 166 173 175 181 188 193 198 208 210 213
240 246 249 239 248 257 257 242 230 217 259 263 217 203 169 198 160 158 153 141 137 143 146 151 149 154 156 154 150 148 151 154 152 151 153 156 158 164 170 176 187 187 192 199 206 213 225 232 248
233 246 238 243 236 251 267 346 302 274 237 298 255 87 113 156 151 164 156 146 150 145 151 156 158 159 168 158 156 148 157 156 154 155 159 157 184 182 182 198 183 191 195 204 215 223 232 239 244
236 230 240 242 252 303 294 341 271 263 272 257 239 109 126 122 246 167 166 153 157 149 160 158 159 161 170 163 149 166 165 172 180 177 172 195 209 177 199 196 178 186 196 209 219 225 231 241 252
231 242 226 249 253 321 158 175 255 312 220 229 248 167 152 175 181 170 173 166 161 155 161 158 156 165 174 155 153 169 164 176 186 184 171 209 207 195 200 148 174 184 202 214 209 214 224 223 227
227 241 245 235 258 317 214 200 288 305 296 3 334 25 300 183 192 188 180 167 163 161 163 156 154 166 185 142 157 173 169 178 179 190 174 196 233 226 179 175 190 191 187 208 222 210 209 217 229
229 232 233 241 256 324 297 238 261 291 295 327 319 312 280 15 319 214 190 170 165 163 158 157 152 163 189 150 163 172 182 176 183 182 181 193 215 223 188 216 220 181 199 196 212 207 192 200 209
229 232 239 274 224 247 292 266 260 269 306 317 308 299 290 133 61 287 206 188 169 164 155 150 154 159 173 190 158 167 188 176 179 178 179 189 204 222 194 204 251 247 241 201 201 204 200 201 221
230 235 227 220 276 231 267 258 250 257 278 293 315 282 300 284 165 233 307 35 13 11 148 145 153 161 170 183 185 166 176 193 181 181 170 181 196 238 201 229 203 233 243 264 319 357 334 308 261
229 228 206 213 240 220 243 267 268 254 257 286 295 306 291 290 279 227 315 94 27 349 304 158 161 168 169 172 180 205 189 183 226 186 157 173 179 204 252 225 253 228 234 208 192 192 206 226 220
221 209 203 234 234 237 226 251 257 259 248 246 279 297 304 268 290 299 91 102 122 317 285 161 170 166 165 164 177 198 212 212 190 166 149 173 176 182 185 246 250 241 70 75 269 226 174 352 313
220 211 196 221 226 224 226 229 237 233 259 208 250 285 295 298 261 284 139 132 145 172 257 176 164 161 163 163 180 186 210 195 179 165 161 164 168 175 173 241 261 234 244 214 254 219 5 22 307
224 234 221 223 221 243 216 225 227 249 214 213 226 245 271 299 232 252 277 160 172 204 142 232 167 157 157 164 175 206 200 199 192 191 185 164 176 183 173 202 245 216 269 274 10 27 332 269 251
233 190 218 230 222 216 208 224 224 228 224 221 215 233 273 305 294 226 231 204 174 161 159 155 213 193 164 164 180 188 207 203 185 200 185 184 175 181 173 208 236 208 202 241 241 75 353 322 322
231 197 229 226 205 209 221 220 216 212 213 214 209 244 275 282 297 316 347 340 247 131 154 153 174 187 196 191 174 194 238 200 188 190 160 182 165 169 168 209 237 232 166 147 172 164 195 243 306
221 222 231 242 215 218 207 242 215 202 207 207 195 219 207 264 337 296 308 301 309 187 173 171 171 200 196 209 181 181 196 202 225 161 160 166 168 167 181 217 226 180 121 239 192 146 178 192 258
223 223 218 197 221 216 206 220 260 185 206 201 198 204 205 199 202 245 273 186 211 224 262 171 167 186 201 194 238 190 202 230 226 175 158 150 164 181 202 209 198 149 134 234 134 119 187 237 255
221 232 227 236 208 224 228 207 230 182 194 190 194 206 215 198 198 173 104 69 350 49 310 146 160 172 204 180 205 263 203 231 302 184 144 156 145 145 192 181 185 161 184 222 166 186 201 211 269
218 216 195 210 226 231 218 234 251 175 177 187 182 183 213 110 100 68 83 9 102 94 6 334 117 153 166 193 181 212 308 324 274 193 151 143 175 169 193 176 172 178 187 209 187 198 206 208 208
212 212 203 192 209 223 232 224 231 187 175 172 174 190 125 127 136 137 74 22 65 54 0 315 113 113 159 265 154 202 240 242 295 212 153 168 182 182 170 179 175 203 189 205 224 208 208 203 213
203 215 227 206 304 206 204 88 61 108 114 142 159 124 128 114 112 125 111 77 53 73 59 43 57 68 67 52 39 41 70 353 313 192 114 299 229 134 162 173 187 189 202 208 199 212 221 214 221
209 202 232 94 260 271 210 158 146 146 144 130 125 115 106 125 146 106 110 122 109 89 53 76 86 69 71 75 85 101 126 43 55 19 18 10 16 2 50 189 195 198 206 209 215 221 219 223 230
193 203 218 225 230 227 128 332 292 149 161 143 135 132 144 151 124 135 129 140 128 91 86 102 118 100 72 56 46 39 25 23 29 15 1 1 4 350 327 309 286 249 224 223 221 223 228 234 226
207 207 205 227 236 259 100 206 33 182 155 135 141 144 143 127 123 117 108 101 84 98 93 63 52 75 65 60 69 65 28 19 25 6 3 357 344 335 321 311 297 283 273 266 236 239 249 244 244